Wind_Speed
5 4 3 3 3 2 2 2 2 3 2 2 3 3 4 3 3 2 2 2 3 3 3 4 5 5 5 5 6 6 7 7 8 8 8 8 9 9 9 10 11 11 11
5 5 4 3 3 3 3 3 3 2 1 1 1 2 2 1 2 1 1 2 3 3 3 4 5 5 6 6 6 6 6 6 7 7 8 9 10 10 10 10 10 11 12
6 5 5 5 4 4 4 4 4 3 2 1 1 1 1 1 2 1 2 3 4 4 4 5 6 6 6 6 7 7 7 7 8 8 9 9 9 9 9 9 10 11 12
7 6 6 6 5 4 4 4 3 2 2 1 1 2 2 2 2 2 3 4 4 4 5 6 6 7 6 6 7 7 7 7 8 8 9 9 9 9 9 10 10 11 12
7 7 6 6 6 6 5 4 3 2 3 2 2 2 3 2 3 3 4 4 5 5 6 6 6 7 7 7 7 7 8 8 9 9 9 10 10 10 12 12 12 12 12
7 7 6 6 6 5 4 4 4 3 3 3 3 3 3 3 4 4 5 6 6 6 6 6 7 6 7 8 8 8 9 9 10 10 10 10 11 11 12 12 13 13 13
7 6 6 7 6 5 5 4 5 4 4 4 4 4 4 4 6 6 6 6 6 7 7 7 7 8 8 9 9 10 11 11 11 11 11 11 11 11 11 12 13 13 13
6 6 6 6 6 6 5 5 5 5 5 5 5 5 5 6 7 6 7 7 7 7 7 8 7 8 8 9 10 11 11 11 11 11 11 12 12 13 13 13 13 13 13
6 7 7 7 7 7 7 7 6 6 6 6 6 6 7 7 7 7 7 8 8 8 9 9 8 8 9 9 9 10 11 11 11 12 12 12 13 13 13 13 13 14 14
7 8 7 7 7 7 7 7 7 7 7 7 7 7 7 8 8 8 9 9 9 9 10 10 10 10 10 10 10 11 12 12 12 13 13 13 14 14 14 14 14 15 15
7 8 8 8 7 7 7 8 8 7 7 7 7 7 8 8 9 9 9 9 10 10 10 10 10 11 11 12 12 12 12 12 13 13 13 14 15 15 15 15 15 16 17
8 8 8 9 8 7 8 8 9 8 8 8 8 8 9 9 10 9 10 10 10 10 10 10 11 12 12 13 13 13 12 13 13 14 14 14 15 16 16 17 17 17 17
9 9 10 10 9 9 9 9 9 9 9 9 9 9 9 10 10 11 12 12 12 11 11 12 12 13 13 14 14 13 13 14 14 14 15 15 16 17 17 18 17 17 18
11 10 10 10 10 11 11 11 11 11 10 10 9 10 10 11 11 12 13 13 13 12 12 13 14 14 14 14 14 14 14 15 16 16 16 17 17 17 17 18 18 18 18
12 12 12 12 12 12 12 12 13 12 12 11 11 11 12 12 13 14 14 14 13 13 13 14 15 15 16 16 16 17 16 17 17 17 18 19 19 18 18 19 19 18 18
13 13 14 14 13 13 14 14 14 14 13 13 13 13 13 13 14 15 15 15 15 15 15 15 15 16 17 18 18 18 19 19 18 19 19 19 19 20 20 20 19 19 19
15 15 15 15 15 15 15 16 16 16 15 14 14 14 15 15 16 16 17 16 16 16 16 17 18 17 18 19 19 20 20 20 19 20 20 21 21 21 21 21 21 21 21
16 16 16 16 16 16 16 16 16 16 17 16 16 16 16 16 17 18 18 18 18 18 18 19 19 20 20 20 20 21 21 21 21 21 22 22 22 22 22 22 22 22 22
17 17 18 18 18 18 18 18 18 18 18 18 18 18 18 18 19 19 20 20 20 20 20 20 20 21 21 21 22 23 22 23 23 23 22 23 23 23 23 23 24 24 24
19 18 18 19 19 19 19 20 20 20 20 19 19 20 20 20 21 21 22 22 22 22 22 22 22 22 22 22 23 23 24 24 25 24 23 24 24 25 25 25 25 25 24
20 20 20 20 21 21 21 21 21 21 21 21 21 22 22 22 22 23 24 24 24 24 24 24 24 24 24 24 25 25 26 26 27 26 26 26 26 25 25 25 26 26 25
22 22 22 22 22 22 22 22 22 22 23 23 23 23 23 23 23 24 25 26 26 25 25 25 25 25 26 26 26 27 28 28 28 28 27 28 28 27 25 26 26 26 26
24 24 24 24 24 24 24 24 24 24 24 24 24 24 24 24 25 25 26 26 26 26 26 27 27 27 28 28 28 28 29 30 29 29 28 28 27 27 27 27 27 27 27
26 26 26 26 26 26 26 26 25 25 25 25 26 25 26 26 26 27 28 28 28 28 28 28 29 29 30 30 30 30 30 30 30 30 30 29 27 27 27 28 29 29 29
28 28 28 27 27 28 28 27 27 27 27 27 27 27 28 28 28 29 29 30 30 30 30 30 30 30 30 31 32 32 32 32 31 30 30 30 29 29 29 29 30 30 30
29 31 30 29 29 29 29 28 29 29 29 28 29 29 29 29 29 30 31 31 31 30 30 30 31 31 32 32 33 33 33 33 32 31 31 30 30 30 30 30 30 30 30
Wind_Direction
77 76 84 93 94 89 80 109 142 164 149 170 191 213 229 256 255 275 300 313 312 312 313 315 306 301 307 306 301 296 287 292 293 295 292 286 284 287 284 285 282 277 275
74 70 72 74 74 69 48 45 60 97 144 151 196 210 223 263 237 277 315 310 310 310 308 313 319 310 309 310 313 312 307 301 301 299 299 302 294 286 284 282 284 282 280
67 66 62 66 66 63 60 55 57 55 58 53 359 283 272 280 273 267 293 302 312 315 313 316 320 321 318 315 314 312 310 308 304 300 301 307 308 302 298 292 286 284 280
63 60 61 59 57 56 56 57 54 49 38 21 348 310 302 303 292 291 303 320 326 318 317 318 320 323 319 318 317 319 318 314 313 308 304 305 307 303 301 300 297 289 283
59 55 52 51 55 54 47 41 34 24 31 20 1 343 325 304 315 309 320 324 324 324 324 320 323 320 319 318 319 320 320 316 314 312 309 308 307 304 300 300 300 297 292
56 52 45 48 49 41 32 28 14 13 10 1 346 337 325 314 312 309 312 311 311 315 318 319 323 322 322 322 320 317 313 316 314 312 312 313 313 307 304 303 302 301 296
51 43 41 41 40 33 27 19 7 358 347 342 336 330 321 307 309 303 302 307 309 312 316 317 314 316 319 321 317 314 313 310 310 309 310 311 313 311 307 305 303 302 300
36 31 28 30 30 22 15 3 354 353 347 336 328 322 323 317 311 302 303 302 307 315 316 319 315 314 316 318 319 321 323 317 311 308 307 308 308 308 306 304 301 300 300
28 24 23 21 21 15 9 359 347 341 340 336 327 321 320 316 313 310 311 310 311 318 320 320 314 313 318 321 321 322 321 316 313 313 312 311 309 308 307 305 302 299 297
15 12 11 8 6 359 353 348 345 338 331 328 326 323 319 318 319 313 313 313 311 312 313 312 308 308 309 313 314 316 318 317 313 313 314 314 314 313 310 308 305 302 300
5 2 358 355 351 346 344 343 340 339 335 328 323 322 320 321 322 316 317 314 312 309 307 310 308 308 311 314 314 312 315 316 313 312 314 314 315 312 310 307 304 301 300
357 350 346 344 339 338 339 337 335 331 328 326 323 318 318 320 319 317 316 317 313 307 305 308 309 309 312 314 313 310 311 314 315 314 313 312 313 313 311 307 303 301 299
347 341 336 336 332 329 325 324 321 320 316 316 318 319 319 320 321 319 316 315 314 307 303 306 308 309 308 308 309 311 313 312 315 314 312 312 311 311 311 309 303 300 299
336 334 333 329 323 318 315 314 312 308 307 308 311 312 313 314 314 316 316 315 312 308 305 307 308 306 305 306 310 309 310 311 311 309 308 309 309 309 309 309 305 301 300
330 328 327 325 320 314 313 310 310 305 302 302 301 303 304 306 308 310 313 314 311 309 309 309 307 307 306 306 307 307 307 309 309 308 307 307 306 306 306 306 305 303 303
325 324 321 318 316 312 310 308 307 305 303 301 298 298 300 302 304 306 308 310 308 309 309 308 307 305 305 307 307 307 307 308 309 307 307 306 306 305 304 305 304 302 301
320 319 317 313 311 310 309 308 307 305 304 301 299 297 296 298 301 302 304 306 304 304 305 306 306 307 307 307 307 309 308 308 308 306 305 305 305 305 305 304 303 300 299
319 317 315 313 309 309 307 307 307 306 302 299 298 297 296 297 299 298 299 302 301 300 301 303 304 305 306 307 307 307 307 307 307 307 306 305 305 305 304 303 303 301 299
318 316 315 314 311 308 305 304 304 303 301 297 297 296 296 297 297 297 297 299 299 298 298 300 302 301 302 303 303 304 305 306 306 307 305 302 302 303 303 303 303 300 298
314 313 311 310 309 308 306 304 301 301 298 296 296 295 296 296 296 295 295 297 297 296 296 298 300 300 301 302 301 301 302 303 304 305 304 303 302 302 301 302 303 301 299
312 310 308 307 307 306 304 303 301 299 297 295 295 294 294 295 295 295 295 295 296 294 295 296 298 299 299 300 300 300 300 301 302 302 302 302 302 302 302 302 303 302 301
310 309 307 306 306 306 303 302 300 298 297 296 295 294 295 295 295 295 295 295 295 293 293 295 297 298 300 300 300 300 301 301 302 302 302 302 300 300 302 303 304 304 302
308 308 306 305 304 304 303 302 300 298 297 296 295 295 295 295 294 294 294 295 295 294 293 294 295 296 297 298 298 299 300 301 302 302 301 302 300 299 299 301 303 305 303
305 305 303 302 302 302 301 300 299 299 297 297 296 294 294 293 293 293 293 293 292 293 293 293 294 295 296 297 298 299 299 299 300 300 299 300 300 299 300 300 301 303 303
302 303 303 300 300 300 299 299 299 298 296 296 295 295 294 292 291 291 292 292 291 291 290 291 294 294 294 296 298 298 299 299 298 299 299 299 299 299 299 299 300 301 302
301 302 302 300 298 298 297 295 297 296 295 295 295 295 294 292 291 291 291 291 291 290 289 290 292 293 293 294 296 297 298 299 298 297 297 297 297 297 297 297 298 299 301
Height
5884 5883 5883 5883 5883 5883 5883 5884 5884 5885 5886 5886 5887 5887 5888 5888 5888 5889 5889 5890 5890 5890 5890 5890 5890 5890 5890 5889 5889 5889 5888 5888 5887 5887 5887 5886 5886 5885 5885 5885 5884 5884 5884
5885 5884 5884 5884 5884 5884 5884 5884 5885 5885 5886 5886 5887 5887 5887 5888 5888 5889 5889 5889 5890 5889 5889 5889 5889 5889 5888 5888 5888 5888 5887 5886 5886 5886 5885 5884 5884 5883 5883 5882 5882 5882 5881
5886 5886 5885 5885 5885 5885 5885 5885 5885 5886 5886 5887 5887 5888 5888 5888 5888 5889 5889 5889 5889 5889 5889 5889 5888 5888 5887 5887 5887 5886 5886 5885 5884 5884 5883 5883 5882 5881 5881 5880 5879 5879 5878
5887 5887 5887 5886 5886 5886 5886 5886 5887 5887 5887 5887 5888 5888 5888 5888 5889 5889 5889 5889 5889 5889 5889 5888 5888 5887 5886 5886 5885 5885 5884 5883 5882 5882 5881 5881 5880 5879 5879 5878 5877 5877 5876
5888 5888 5888 5888 5888 5888 5888 5887 5887 5887 5888 5888 5888 5888 5888 5888 5888 5888 5888 5888 5888 5888 5888 5887 5886 5886 5885 5884 5884 5883 5882 5882 5881 5880 5879 5879 5878 5877 5876 5876 5875 5874 5873
5890 5890 5890 5889 5889 5889 5889 5888 5888 5888 5888 5888 5888 5888 5888 5888 5888 5888 5888 5888 5887 5887 5887 5886 5885 5884 5884 5883 5882 5882 5881 5880 5879 5878 5877 5876 5875 5874 5874 5873 5872 5871 5870
5891 5891 5891 5890 5890 5890 5889 5889 5889 5888 5888 5888 5887 5887 5886 5887 5887 5887 5887 5887 5886 5886 5885 5885 5884 5883 5882 5882 5881 5880 5879 5878 5877 5876 5875 5874 5873 5872 5871 5870 5869 5868 5867
5893 5892 5892 5891 5891 5891 5890 5889 5889 5888 5888 5887 5887 5887 5886 5887 5886 5885 5885 5885 5885 5884 5884 5883 5883 5882 5881 5880 5879 5878 5877 5876 5875 5874 5873 5872 5871 5870 5868 5867 5866 5865 5864
5894 5893 5892 5892 5891 5891 5890 5889 5888 5888 5887 5886 5886 5886 5886 5885 5885 5884 5884 5883 5883 5882 5882 5881 5881 5880 5879 5878 5877 5877 5875 5874 5872 5871 5870 5869 5868 5867 5865 5864 5863 5862 5861
5895 5894 5893 5892 5891 5890 5890 5889 5888 5887 5886 5886 5885 5884 5884 5884 5884 5883 5883 5882 5881 5880 5880 5879 5879 5878 5877 5876 5875 5874 5873 5871 5870 5869 5868 5867 5865 5864 5862 5861 5859 5858 5857
5895 5894 5893 5892 5891 5890 5889 5888 5887 5886 5885 5885 5884 5883 5883 5882 5882 5881 5881 5880 5879 5879 5878 5877 5875 5875 5874 5874 5872 5871 5870 5869 5867 5866 5865 5864 5862 5860 5859 5857 5856 5854 5853
5895 5894 5893 5891 5890 5889 5888 5887 5886 5885 5884 5883 5882 5882 5881 5880 5879 5879 5879 5878 5877 5876 5876 5875 5874 5872 5871 5871 5870 5868 5867 5866 5864 5863 5862 5860 5859 5857 5855 5853 5852 5850 5849
5895 5893 5892 5890 5889 5888 5887 5886 5885 5884 5882 5881 5881 5880 5879 5879 5877 5877 5876 5875 5874 5874 5873 5872 5871 5869 5868 5867 5866 5865 5864 5862 5861 5859 5858 5857 5855 5853 5851 5849 5847 5845 5844
5894 5892 5890 5889 5888 5886 5885 5884 5883 5882 5881 5880 5879 5878 5877 5877 5876 5875 5874 5873 5871 5871 5870 5869 5868 5867 5865 5864 5862 5861 5860 5859 5857 5856 5854 5853 5850 5848 5847 5845 5842 5841 5839
5892 5890 5889 5887 5886 5884 5883 5881 5880 5879 5878 5877 5876 5876 5875 5874 5874 5872 5871 5870 5869 5868 5867 5866 5865 5863 5862 5861 5859 5858 5856 5855 5853 5851 5850 5848 5846 5844 5842 5840 5838 5836 5834
5890 5889 5887 5885 5883 5882 5880 5879 5877 5876 5875 5874 5873 5873 5872 5871 5871 5869 5868 5867 5866 5865 5863 5863 5861 5860 5858 5857 5855 5854 5852 5850 5848 5846 5845 5843 5841 5839 5837 5834 5832 5830 5828
5888 5886 5884 5882 5880 5879 5877 5876 5874 5872 5871 5870 5870 5869 5868 5868 5867 5866 5864 5863 5862 5860 5859 5858 5857 5856 5854 5852 5850 5849 5847 5845 5843 5841 5839 5837 5835 5833 5831 5829 5827 5825 5823
5885 5883 5881 5879 5877 5876 5874 5872 5871 5869 5868 5867 5866 5865 5865 5864 5863 5861 5860 5859 5857 5856 5855 5854 5853 5851 5849 5848 5846 5843 5842 5840 5837 5835 5833 5831 5829 5827 5825 5823 5821 5819 5817
5882 5880 5878 5876 5874 5873 5871 5869 5867 5866 5864 5863 5862 5861 5860 5859 5858 5857 5856 5854 5853 5851 5850 5849 5848 5846 5844 5842 5840 5838 5836 5834 5832 5829 5827 5826 5824 5821 5819 5817 5815 5813 5810
5879 5877 5875 5873 5871 5869 5867 5865 5863 5862 5860 5859 5858 5856 5855 5854 5853 5852 5851 5849 5847 5846 5844 5843 5842 5840 5838 5836 5834 5832 5830 5828 5826 5824 5821 5819 5817 5815 5813 5811 5809 5806 5804
5876 5873 5871 5869 5867 5865 5863 5861 5859 5857 5855 5854 5853 5851 5850 5849 5847 5846 5845 5843 5842 5840 5838 5837 5836 5834 5832 5830 5828 5826 5824 5822 5819 5817 5815 5813 5810 5808 5806 5804 5801 5799 5797
5872 5869 5867 5865 5862 5860 5858 5856 5854 5853 5851 5849 5848 5846 5845 5843 5842 5840 5839 5837 5835 5834 5832 5831 5829 5827 5825 5823 5821 5819 5817 5815 5812 5811 5808 5805 5803 5801 5799 5797 5794 5792 5789
5867 5865 5862 5860 5858 5855 5853 5851 5848 5847 5845 5843 5842 5840 5839 5837 5836 5834 5832 5831 5829 5827 5826 5824 5822 5820 5818 5816 5814 5812 5810 5807 5805 5803 5800 5798 5796 5794 5792 5790 5787 5785 5782
5861 5859 5857 5855 5852 5850 5848 5845 5843 5841 5839 5837 5835 5834 5832 5831 5829 5827 5826 5824 5822 5820 5818 5816 5815 5813 5810 5808 5806 5804 5802 5800 5797 5795 5792 5791 5788 5787 5785 5782 5779 5777 5774
5855 5853 5850 5848 5846 5844 5841 5839 5837 5835 5833 5831 5829 5827 5825 5824 5822 5820 5818 5816 5815 5813 5810 5808 5807 5805 5802 5800 5798 5796 5794 5791 5789 5787 5785 5783 5781 5779 5777 5774 5771 5769 5766
5848 5846 5843 5841 5838 5836 5834 5832 5830 5828 5825 5823 5821 5819 5817 5816 5814 5812 5810 5808 5806 5804 5802 5800 5799 5797 5794 5792 5790 5788 5785 5783 5781 5780 5777 5774 5772 5770 5769 5766 5763 5760 5758